Find Starlink 3978

NORAD ID: 52635 Int'l Des: 2022-052 Owner: SPXS Country: US Constellation: starlink operational
LEOCIRCULAR

リアルタイム位置

3D地球を読み込み中...

Starlink 3978について

説明を読み込み中...

次回通過

Passes for default location (London). Set your location on the main map for personalized predictions.

高度履歴

Loading altitude history...

軌道要素

1 52635U 22052AP 26104.97928388 -.00000173 00000-0 72243-5 0 9994
2 52635 53.2158 96.2102 0001361 86.3361 273.7787 15.08840429216613
Epoch: Apr 14, 2026 • Age: 10 hours

現在のステータス

高度 540.9 km
速度 7.60 km/s
衛星直下点 30.68°N, 138.8°E
打ち上げ日 May 14, 2022
運用期間 3.9 years
タイプ internet

技術仕様

分類 Payload
質量 297.00 kg
乾燥質量 275.00 kg
総質量 297.00 kg
長さ 0.20 m
直径 2.80 m
スパン 9.00 m
形状 Box + pan
製造者 SPXS
バスタイプ Starlink
フェーズステータス In Orbit
所有者/国 SPXS/US

Most Searched